Strona główna
METAR-TAF:

METAR-TAF

Lotnisko :

Platforma wiertnicza

Ula, Norwegia

Szerokość geograficzna: 59-06-39N, Długość geograficzna: 2-50-45E, wysokość: 0 m

Aktualna obserwacja pogody

Raport powstał 38 minut temu, godzina 22:50 UTC
Wiatr 8 kt od południowy zachód, zmienny między południowo-południowy wschód i zachodnio-północny zachód
Temperatura 8°C
Wilgotność 87%
Ciśnienie 1018 hPa
Widzialność 10 km lub więcej

METAR: ENLA 262250Z AUTO 22008KT 150V300 9999NDV FEW012/// BKN041/// 08/06 Q1018 W///S4

czas: 00:28 (23:28 UTC)


TAF: brakujący

Obserwacja i prognoza pogody dla ponad 4000 lotnisk (raport METAR i TAF).

Dostępne stacje oznaczono żółtymi i czerwonymi punktami na mapie.

Najedź kursorem aby zobaczyć nazwę stacji.

Kliknij aby zobaczyć obserwacje i prognozy pogody.

Aby zmienić mapę: kliknij na zielony przycisk z czarnym krzyżykiem, aby powiększyć; na zielony przycisk z myślnikiem, aby pomniejszyć; na zielone strzałki, aby przejść do map sąsiednich.


METAR-TAF: